Flag for India Weather past 2 weeks in Nagaur, Rajasthan, India

Now
90 °F

Haze.


Feels Like: 88 °F
Forecast: 80 / 106 °F
Wind: 5 mph from South

Location: Jaipur / Sanganer

Current Time: Apr 18, 2015 at 9:53:30 AM

Latest Report: Apr 18, 2015 at 9:00 AM


Visibility: 2 mi

Pressure: 29.77 "Hg

Humidity: 33%

Dew point: 57 °F

Location of NagaurLocation

Historic Weather in Nagaur — Graph

°F

Nagaur temperature yesterday

Maximum temperature yesterday: 100 °F (at 3:30 PM)
Minimum temperature yesterday: 73 °F (at 6:00 AM)
Average temperature yesterday: 90 °F

Past Weeks' High & Low Weather Summary

 TemperatureHumidityPressure
High102 °F (Apr 9, 8:30 PM)100% (Apr 5, 8:00 AM)30.07 "Hg (Apr 5, 8:00 AM)
Low66 °F (Apr 4, 3:00 AM)10% (Apr 10, 4:30 PM)29.65 "Hg (Apr 3, 4:00 PM)
Average80 °F47%29.88 "Hg
* Reported Apr 3 8:00 AM — Apr 18 8:00 AM, Nagaur, Weather by CustomWeather, © 2015

Note: Actual official high and low records may vary slightly from our data, if they occured in-between our weather recording intervals... More about our weather records

Advertising

Nagaur weather history for previous 24 hours

 ConditionsComfort  
Time TempWeatherWind HumidityBarometerVisibility
8:00 AM
Sat, Apr 18
86 °FHaze.No wind40%29.74 "Hg1 mi
7:30 AM82 °FHaze.No wind45%29.74 "Hg2 mi
7:00 AM79 °FHaze.No wind51%29.71 "Hg2 mi
6:00 AM79 °FHaze.No wind51%29.71 "Hg1 mi
5:30 AM79 °FHaze.2 mph51%29.71 "Hg1 mi
5:00 AM81 °FHaze.2 mph45%29.71 "Hg1 mi
4:00 AM79 °FHaze.2 mph48%29.71 "Hg1 mi
2:00 AM82 °FHaze.No wind37%29.71 "Hg1 mi
1:00 AM84 °FHaze.3 mph45%29.71 "Hg1 mi
12:00 AM84 °FHaze.No wind45%29.74 "Hg1 mi
11:30 PM
Fri, Apr 17
84 °FHaze.No wind43%29.74 "Hg1 mi
11:00 PM86 °FHaze.No wind38%29.77 "Hg1 mi
10:00 PM86 °FHaze.No wind40%29.77 "Hg1 mi
9:00 PM90 °FHaze.No wind33%29.77 "Hg1 mi
7:00 PM97 °FHaze.3 mph19%29.74 "Hg2 mi
6:30 PM99 °FHaze.6 mph18%29.71 "Hg2 mi
6:00 PM99 °FHaze.7 mph18%29.71 "Hg3 mi
5:30 PM100 °FHaze.8 mph17%29.71 "Hg3 mi
5:00 PM100 °FHaze.9 mph17%29.74 "Hg3 mi
4:30 PM100 °FHaze.9 mph16%29.74 "Hg3 mi
4:00 PM100 °FHaze.10 mph20%29.74 "Hg3 mi
3:30 PM100 °FHaze.10 mph20%29.77 "Hg3 mi
2:30 PM99 °FHaze.10 mph21%29.80 "Hg2 mi
2:00 PM99 °FHaze.10 mph24%29.83 "Hg2 mi
1:30 PM97 °FHaze.7 mph25%29.86 "Hg2 mi
1:00 PM95 °FHaze.9 mph28%29.89 "Hg2 mi
12:00 PM91 °FHaze.9 mph32%29.92 "Hg2 mi
11:00 AM90 °FHaze.7 mph36%29.95 "Hg2 mi
10:00 AM86 °FHaze.5 mph40%29.98 "Hg2 mi
Weather by CustomWeather, © 2015

See weather overviewHow to use our weather pages